USA 157 (MILSTAR-2 2)

Last updated on Thu Nov 21 2024 00:02:40 GMT+0000 (Coordinated Universal Time)

1 26715U 01009A 24325.44733712 .00000109 00000+0 00000+0 0 9996 2 26715 10.9136 23.0463 0041527 173.7875 234.1171 1.00269140 27199
UTC large
Height (km)
Speed (km/s)
/
Latitude / Longitude
Inclination (degrees)
Orbital Period (minutes)
Azimuth
Elevation
Range (km)
Doppler Factor

Next 0 passes for location: London (51.5072 / 0.1276)

Sorry there are no passes over London.